TimeEST,TemperatureF,Dew PointF,Humidity,Sea Level PressureIn,VisibilityMPH,Wind Direction,Wind SpeedMPH,Gust SpeedMPH,PrecipitationIn,Events,Conditions,WindDirDegrees,DateUTC
12:52 AM,24.1,21.9,91,30.40,10.0,Calm,Calm,-,N/A,,Clear,0,2012-12-31 05:52:00
1:52 AM,26.1,24.1,92,30.38,10.0,Calm,Calm,-,N/A,,Clear,0,2012-12-31 06:52:00
2:52 AM,27.0,24.1,89,30.38,9.0,Calm,Calm,-,N/A,,Clear,0,2012-12-31 07:52:00
3:52 AM,25.0,21.9,88,30.39,10.0,Calm,Calm,-,N/A,,Clear,0,2012-12-31 08:52:00
4:52 AM,25.0,23.0,92,30.39,9.0,Calm,Calm,-,N/A,,Clear,0,2012-12-31 09:52:00
5:52 AM,24.1,21.9,91,30.40,10.0,Calm,Calm,-,N/A,,Clear,0,2012-12-31 10:52:00
6:52 AM,25.0,24.1,96,30.40,8.0,Calm,Calm,-,N/A,,Clear,0,2012-12-31 11:52:00
7:52 AM,28.9,27.0,92,30.39,8.0,Calm,Calm,-,N/A,,Clear,0,2012-12-31 12:52:00
8:52 AM,30.9,28.0,89,30.41,9.0,Calm,Calm,-,N/A,,Clear,0,2012-12-31 13:52:00
9:52 AM,37.0,30.9,79,30.42,10.0,SW,5.8,-,N/A,,Clear,230,2012-12-31 14:52:00
10:52 AM,43.0,28.9,58,30.40,10.0,WSW,8.1,-,N/A,,Clear,240,2012-12-31 15:52:00
11:52 AM,50.0,27.0,41,30.35,10.0,SW,13.8,18.4,N/A,,Clear,230,2012-12-31 16:52:00
12:52 PM,52.0,23.0,32,30.29,10.0,SW,17.3,23.0,N/A,,Clear,230,2012-12-31 17:52:00
1:52 PM,54.0,21.9,29,30.28,10.0,SW,11.5,-,N/A,,Clear,230,2012-12-31 18:52:00
2:52 PM,55.0,21.0,27,30.25,10.0,SW,12.7,-,N/A,,Clear,220,2012-12-31 19:52:00
3:52 PM,54.0,25.0,33,30.23,10.0,SW,8.1,-,N/A,,Clear,230,2012-12-31 20:52:00
4:52 PM,48.9,30.0,48,30.22,10.0,WSW,4.6,-,N/A,,Clear,240,2012-12-31 21:52:00
6:52 PM,50.0,37.9,63,30.23,10.0,SW,8.1,-,N/A,,Overcast,230,2012-12-31 23:52:00
7:52 PM,50.0,37.9,63,30.22,10.0,WSW,8.1,-,N/A,,Overcast,240,2013-01-01 00:52:00
8:52 PM,50.0,37.9,63,30.20,10.0,SW,8.1,-,N/A,,Overcast,220,2013-01-01 01:52:00
9:52 PM,48.9,37.9,66,30.19,10.0,WSW,5.8,-,N/A,,Overcast,240,2013-01-01 02:52:00
10:52 PM,46.0,37.9,73,30.17,10.0,SW,6.9,-,N/A,,Clear,230,2013-01-01 03:52:00
11:52 PM,48.0,39.0,71,30.16,10.0,SW,3.5,-,N/A,,Mostly Cloudy,230,2013-01-01 04:52:00